EHI
0 0 1 0 0 0 0 0 0 0 0 0 0 0 0 0 0 0 0 0 0 0 0 0 0 0 0 0 0 0 0 0 0 0 0 0 0 0 0 0 0 0 0
0 0 1 0 0 0 0 0 0 0 0 0 0 0 0 0 0 0 0 0 0 0 0 0 0 0 0 0 0 0 0 0 0 0 0 0 0 0 0 0 0 0 0
0 0 0 0 0 0 0 0 0 0 0 0 0 0 0 0 0 0 0 0 0 0 0 0 0 0 0 0 0 0 0 0 0 0 0 0 0 0 0 0 0 0 0
0 0 3 5 3 0 0 0 0 0 0 0 0 0 0 0 0 0 0 0 0 0 0 0 0 0 0 0 0 0 0 0 0 0 0 0 0 0 0 0 0 0 0
0 6 21 25 11 0 0 0 0 0 0 0 0 0 0 0 0 0 0 0 0 0 0 0 0 0 0 0 0 0 0 0 0 0 0 0 0 0 0 0 0 0 0
0 15 47 50 20 1 0 0 0 0 0 0 0 0 0 0 0 0 0 0 0 0 0 0 0 0 0 0 0 0 0 0 0 0 0 0 0 0 0 0 0 0 0
0 19 54 54 20 1 0 0 0 0 0 0 0 0 0 0 0 0 0 0 0 0 0 0 0 0 0 0 0 0 0 0 0 0 0 0 0 0 0 0 0 0 0
0 13 35 34 12 0 0 0 0 0 0 0 0 0 0 0 0 0 0 0 0 0 0 0 0 0 0 0 0 0 0 0 0 0 0 0 0 0 0 0 0 0 0
1 6 14 14 5 0 1 1 1 0 0 0 0 0 0 0 0 0 0 0 0 0 0 0 0 0 0 0 0 0 0 0 0 0 0 0 0 0 0 0 0 0 0
6 6 6 6 3 0 1 1 1 0 0 0 0 0 0 0 0 0 0 0 0 0 0 0 0 0 0 0 0 0 0 0 0 0 0 0 0 0 0 0 0 0 0
9 10 9 7 4 1 1 1 0 0 0 0 0 0 0 0 0 0 0 0 0 0 0 0 0 0 0 0 0 0 0 0 0 0 0 0 0 0 0 0 0 0 0
7 8 10 9 4 1 2 2 1 0 0 0 0 0 0 0 0 0 0 0 0 0 0 0 0 0 0 0 0 0 0 0 0 0 0 0 0 0 0 0 0 0 0
3 4 8 10 7 4 3 3 2 1 0 0 0 0 0 0 0 0 0 0 0 0 0 0 0 0 0 0 0 0 0 0 0 0 0 0 0 0 0 0 0 0 0
2 3 5 10 11 6 3 3 2 1 0 0 0 0 0 0 0 0 0 0 0 0 0 0 0 0 0 0 0 0 0 0 0 0 0 0 0 0 0 0 0 0 0
1 2 5 9 10 6 3 3 3 1 0 0 0 0 0 0 0 0 0 0 0 0 0 0 0 0 0 0 0 0 0 0 0 0 0 0 0 0 0 0 0 0 0
1 2 4 9 12 9 5 4 3 2 1 0 0 0 0 0 0 0 0 0 0 0 0 0 0 0 0 0 0 0 0 0 0 0 0 0 0 0 0 0 0 0 0
0 1 3 8 13 12 10 11 10 4 1 0 0 0 0 0 0 0 0 0 0 0 0 0 0 0 0 0 0 0 0 0 0 0 0 0 0 0 0 0 0 0 0
0 0 1 3 7 10 19 31 27 11 2 0 0 0 0 0 0 0 0 0 0 0 0 0 0 0 0 0 0 0 0 0 0 0 0 0 0 0 0 0 0 0 0
0 0 0 0 1 7 25 45 39 16 3 0 0 0 0 0 0 0 0 0 0 0 0 0 0 0 0 0 0 0 0 0 0 0 0 0 0 0 0 0 0 0 0
0 0 0 0 0 4 20 34 28 10 2 0 0 0 0 0 0 0 0 0 0 0 0 0 0 0 0 0 0 0 0 0 0 0 0 0 0 0 0 0 0 0 0
0 0 0 0 0 2 8 12 8 2 0 0 0 0 0 0 0 0 0 0 0 0 0 0 0 0 0 0 0 0 0 0 0 0 0 0 0 0 0 0 0 0 0
0 0 0 1 1 1 1 1 0 0 0 0 0 0 0 0 0 0 0 0 0 0 0 0 0 0 0 0 0 0 0 0 0 0 0 0 0 0 0 0 0 0 0
0 0 2 3 2 1 1 0 0 0 0 0 0 0 0 0 0 0 0 0 0 0 0 0 0 0 0 0 0 0 0 0 0 0 0 0 0 0 0 0 0 0 0
0 1 3 4 2 0 0 0 0 0 0 0 0 0 0 0 0 0 0 0 0 0 0 0 0 0 0 0 0 0 0 0 0 0 0 0 0 0 0 0 0 0 0
0 1 3 3 1 0 0 0 0 0 0 0 0 0 0 0 0 0 0 0 0 0 0 0 0 0 0 0 0 0 0 0 0 0 0 0 0 0 0 0 0 0 0
0 1 3 2 0 0 0 0 0 0 0 0 0 0 0 0 0 0 0 0 0 0 0 0 0 0 0 0 0 0 0 0 0 0 0 0 0 0 0 0 0 0 0
Wind_Speed
10 15 16 16 15 13 12 12 11 10 8 7 7 8 8 9 10 9 8 8 9 9 9 7 8 10 11 10 9 8 7 6 6 6 6 6 6 5 4 2 4 6 2
12 15 16 15 16 14 12 11 10 9 8 8 10 10 9 7 7 8 8 7 7 8 8 7 8 8 9 9 9 7 6 6 5 5 4 1 2 5 5 4 5 2 1
13 14 16 14 15 15 13 11 10 9 8 9 10 9 7 6 6 7 7 7 6 8 8 8 8 9 8 8 7 7 6 6 5 4 4 3 2 4 6 5 4 3 3
14 14 15 16 16 15 13 12 10 9 9 8 8 7 5 4 4 6 7 6 6 7 7 7 8 8 8 7 7 6 5 5 4 2 4 4 4 5 8 8 6 5 5
14 14 14 17 16 15 13 12 10 9 8 8 7 5 3 2 4 6 7 7 7 7 7 7 6 6 7 7 7 7 7 4 1 6 5 4 5 5 9 10 9 8 7
13 14 16 17 16 15 14 13 11 10 9 7 6 4 3 2 1 3 4 8 8 6 5 4 4 5 5 6 6 6 7 7 6 5 5 5 5 5 8 10 10 10 10
12 12 16 17 16 16 15 14 12 10 8 7 5 4 4 5 6 3 5 9 7 5 2 3 5 6 6 6 6 6 6 4 6 5 5 5 5 8 10 10 10 11 12
11 11 14 16 13 14 14 14 12 11 9 7 6 4 5 8 11 5 9 8 6 3 3 5 6 7 6 6 8 8 6 7 6 6 6 6 6 8 10 11 11 13 13
10 10 11 13 12 12 13 13 12 11 9 8 6 5 8 9 10 11 7 6 4 4 4 6 7 7 7 8 8 7 5 4 7 5 6 5 7 10 10 11 12 13 14
9 10 10 10 10 11 12 12 11 9 8 7 6 8 8 7 7 8 7 7 6 5 6 8 10 9 9 10 9 7 5 5 5 5 4 5 9 10 10 10 11 12 13
10 9 9 10 10 9 10 11 10 9 9 10 8 8 3 2 3 5 7 5 6 7 9 10 10 9 6 8 8 5 4 4 5 4 4 8 10 10 10 10 10 11 11
13 12 10 10 10 10 8 9 7 7 9 7 6 6 4 3 3 3 7 6 7 8 10 9 7 5 4 4 3 3 4 6 5 4 5 10 9 9 9 8 8 10 11
12 13 12 11 10 10 8 8 6 5 6 6 7 6 5 5 4 3 3 4 4 4 4 4 2 4 5 5 5 5 5 5 4 4 5 10 10 9 9 12 13 13 14
11 13 13 13 12 11 9 8 8 7 6 6 7 8 6 4 4 4 3 4 3 3 3 3 3 5 5 5 6 6 5 4 4 3 5 11 12 12 12 13 14 15 15
13 14 14 15 14 12 10 8 8 8 8 8 7 7 7 5 5 5 4 4 4 4 3 4 4 5 5 6 5 5 6 5 4 3 3 10 13 14 14 14 14 15 15
14 15 15 16 16 14 11 10 9 9 8 8 8 9 8 5 6 6 6 5 4 4 4 4 5 4 4 5 5 5 5 4 3 2 2 6 12 13 14 14 14 15 15
12 13 14 15 16 15 14 13 10 9 9 8 8 9 8 7 8 7 6 5 5 4 4 4 5 4 4 5 5 5 4 2 1 2 3 3 5 9 13 14 15 15 15
10 10 11 11 15 16 14 13 9 10 10 8 7 7 10 10 10 8 6 6 5 4 4 4 4 4 5 6 5 4 3 1 2 3 3 4 4 4 7 11 13 14 15
10 10 10 12 15 15 14 11 11 10 8 7 6 7 10 11 10 9 7 6 6 5 4 4 4 5 6 7 6 4 3 2 3 2 4 4 5 5 5 6 9 10 13
9 9 10 12 14 14 11 9 8 8 7 6 7 8 11 10 11 10 8 8 6 5 4 3 4 5 5 7 6 3 1 1 3 1 4 3 3 5 6 7 7 7 10
10 9 9 12 14 13 11 11 10 8 8 7 7 9 10 10 10 10 8 7 6 5 5 5 4 5 6 6 5 3 0 2 2 1 3 2 3 4 6 9 8 8 7
11 10 10 13 15 16 12 11 8 10 8 8 8 8 8 8 10 8 9 7 6 6 6 5 5 4 4 5 5 4 4 0 2 2 2 3 4 6 7 10 10 10 9
12 11 11 14 16 16 14 9 10 9 8 7 8 7 6 7 9 10 10 8 7 6 5 5 5 5 4 4 4 4 4 3 5 4 5 5 5 6 8 9 11 11 10
14 12 13 15 17 17 16 14 17 13 13 11 9 8 8 8 10 10 10 9 8 6 5 5 5 4 4 3 2 2 3 3 5 6 5 5 7 9 9 8 11 10 10
15 13 14 16 17 17 17 17 16 13 12 12 11 12 10 9 10 10 9 8 8 6 6 5 4 3 2 2 2 2 2 3 5 5 8 8 7 7 7 9 9 8 8
13 14 15 17 17 18 18 17 16 17 18 17 15 13 10 8 8 10 9 8 7 6 6 5 3 2 0 1 2 2 3 4 4 5 8 10 10 8 10 7 7 7 8
Wind_Direction
155 157 154 156 151 149 140 127 117 112 110 114 123 122 123 122 116 110 100 86 67 52 40 37 37 41 46 54 71 84 82 66 43 39 32 27 19 6 347 311 233 237 207
151 157 154 160 155 151 141 129 122 118 113 113 118 108 100 104 107 110 101 90 72 51 45 47 43 41 42 41 44 47 47 43 33 41 17 8 57 1 351 340 304 318 151
154 158 159 163 157 153 145 136 133 127 117 113 115 108 104 111 110 117 110 92 73 55 52 55 50 47 45 39 33 30 25 17 31 49 282 309 55 16 348 328 288 237 245
159 162 160 158 157 154 148 142 142 137 125 120 122 121 118 117 132 139 131 111 87 69 62 61 53 46 40 31 23 19 20 22 49 301 297 352 340 16 334 324 306 259 260
162 165 147 152 157 157 153 147 147 142 136 134 137 139 137 154 155 155 145 122 104 90 76 65 52 39 30 19 10 5 8 26 174 264 353 347 327 2 325 314 312 305 277
166 167 147 154 158 159 158 154 153 150 151 152 146 127 92 37 260 207 163 132 124 112 92 64 29 18 16 9 6 6 10 18 285 333 338 329 322 352 318 309 303 300 294
168 171 151 157 162 162 162 158 157 155 158 164 166 142 103 45 14 252 174 143 136 127 94 26 3 1 7 5 9 16 16 345 317 337 330 324 336 335 312 303 295 289 283
171 172 154 157 161 165 165 158 156 157 160 164 171 151 99 63 37 60 152 145 140 113 38 12 354 352 1 18 28 28 20 338 319 327 327 319 355 322 310 303 295 287 278
173 173 163 158 164 168 163 156 156 160 161 161 164 128 91 76 58 55 93 115 108 61 25 3 1 7 34 42 40 36 23 340 309 336 325 323 347 312 307 307 303 296 290
176 182 173 165 169 172 166 153 153 158 158 148 123 100 92 98 93 76 77 66 56 40 23 29 43 53 56 53 45 35 2 288 341 336 329 358 333 311 308 311 317 319 317
178 185 181 172 172 175 167 155 157 159 149 142 128 113 147 175 138 123 73 53 49 48 52 59 58 56 60 72 52 13 304 337 340 336 344 352 327 320 316 315 317 322 328
182 182 185 184 178 180 167 165 171 169 164 175 158 156 164 146 125 108 107 77 72 83 85 70 65 58 3 20 38 310 338 333 324 333 3 350 335 327 325 338 3 14 10
191 183 188 187 184 186 178 174 175 174 171 174 167 160 151 147 144 144 131 133 118 100 87 81 57 33 22 16 344 344 349 332 324 332 22 10 8 11 28 42 38 28 27
207 195 191 188 185 191 191 185 185 180 176 175 174 171 161 149 141 120 98 80 77 74 58 39 21 26 13 0 346 339 339 333 332 343 41 26 36 40 41 36 30 29 25
211 207 198 193 190 188 190 191 193 187 181 178 172 175 168 155 137 118 102 90 76 60 50 31 17 16 3 351 348 340 340 339 338 353 74 49 42 41 40 34 29 25 19
216 210 201 196 193 190 188 189 191 188 184 180 173 172 170 149 129 117 105 90 77 61 45 33 25 4 353 344 340 341 337 338 354 20 55 78 57 44 42 36 28 21 14
225 220 207 200 194 193 192 191 187 182 181 182 174 170 162 141 130 120 113 106 94 82 63 37 24 357 353 339 335 345 341 329 51 67 59 46 65 57 44 33 25 18 10
237 226 216 203 198 195 194 189 180 180 177 177 169 156 146 134 127 120 115 104 98 84 66 50 14 2 1 347 340 343 328 238 131 80 67 47 38 28 45 31 18 10 0
242 224 211 207 198 193 192 184 177 172 165 159 151 139 135 132 133 127 115 110 103 89 74 61 37 13 1 350 340 340 338 199 141 107 31 28 38 18 6 15 359 355 349
248 232 212 200 188 183 179 170 156 145 144 139 133 132 135 133 131 122 115 114 111 102 88 73 61 35 8 344 330 338 26 168 204 279 339 9 30 12 0 349 338 339 337
245 232 210 186 176 174 172 166 155 151 143 127 119 125 127 128 128 122 119 116 109 97 86 62 49 39 23 353 333 330 246 170 208 60 352 357 14 6 343 343 337 332 324
238 224 200 181 177 177 180 175 162 140 127 115 112 108 112 125 127 123 122 119 114 107 92 70 48 38 37 16 350 333 333 251 163 346 343 336 336 347 339 338 330 323 322
231 213 193 179 176 178 174 154 138 125 122 118 116 108 115 130 126 122 122 121 117 109 98 74 53 37 25 30 18 353 333 332 324 289 319 312 327 333 328 325 318 317 317
222 205 191 179 175 175 166 163 164 159 153 150 138 129 131 130 124 122 124 124 119 113 111 91 67 50 15 8 20 6 331 315 296 304 289 294 312 309 307 312 313 309 311
214 192 182 178 175 171 169 170 170 157 141 133 130 132 132 129 125 127 128 124 118 115 112 104 93 69 32 352 338 324 303 286 269 288 299 309 307 296 298 304 300 300 310
200 181 177 177 173 170 170 170 166 152 143 142 143 143 141 136 132 130 128 123 123 124 123 115 111 111 75 280 282 293 304 298 299 290 293 303 306 307 303 294 287 300 311